Regional Weather Roundup
Issued by NWS Sterling, VA

Home | Current Version | Previous Version | Graphics & Text | Print | Product List | Glossary On
Versions: 1 2 3 4 5 6 7 8 9 10 11 12 13 14 15 16 17 18 19 20 21 22 23 24 25 26
000
ASUS41 KLWX 131410
RWRLWX

REGIONAL WEATHER ROUNDUP
NATIONAL WEATHER SERVICE BALTIMORE MD/WASHINGTON DC
900 AM EST WED DEC 13 2017

Note: "FAIR" indicates few or no clouds below 12,000 feet
with no significant weather and/or obstructions to visibility.
 TC=TEMPERATURE CELSIUS

 * =Non NWS site. Station does not report precipitation (e.g. rain,
    snow, etc.), thunder, or fog.

DCZ001-MDZ009-015-VAZ040>042-051-053>054-131500-
WASHINGTON METRO

CITY           SKY/WX    TMP DP  RH WIND       PRES   REMARKS
WASHINGTON NAT SUNNY     25   0  33 W25G36    29.87R WCI   9
DULLES         MOSUNNY   23   2  40 NW15G25   29.86R WCI  10
ANDREWS AFB    SUNNY     23  -1  35 W21G31    29.83R WCI   8
FT BELVOIR     SUNNY     24   1  35 W22G30    29.87R WCI   9
QUANTICO       MOSUNNY   26   4  38 NW10      29.91R WCI  16
COLLEGE PARK*  SUNNY     23  -1  36 W14G24    29.84S WCI  10
LEESBURG*      SUNNY     25   5  42 NW24G39   29.85S WCI   9
MANASSAS*      PTSUNNY   24   5  44 W9        29.89R WCI  14
GAITHERSBURG*  SUNNY     21   3  45 W18G31    29.81R WCI   6

$$

MDZ006>007-011-014-131500-
BALTIMORE METRO

CITY           SKY/WX    TMP DP  RH WIND       PRES   REMARKS
BWI AIRPORT    MOSUNNY   23   3  42 W23G30    29.80R WCI   7
MD SCIENCE CTR   N/A     25   3  38 MISG      29.87R
MARTIN STATE   SUNNY     25   7  46 SW21G29   29.80S WCI  10
ANNAPOLIS      SUNNY     24   6  46 W12G29    29.82R WCI  13
FORT MEADE*    SUNNY     23   5  46 W18G29    29.84S WCI   9

$$

MDZ012-015-019>023-131500-
MARYLAND EASTERN SHORE

CITY           SKY/WX    TMP DP  RH WIND       PRES   REMARKS
OCEAN CITY     SUNNY     25   6  44 NW16G28   29.82R WCI  12
SALISBURY      SUNNY     25   5  42 W16G28    29.83R WCI  12
BAY BRIDGE AP* SUNNY     23   5  46 MISG      29.83R
CAMBRIDGE*     SUNNY     25   3  39 NW15G22   29.85R WCI  12
EASTON*        SUNNY     25   3  39 NW16G29   29.86R WCI  12

$$

MDZ017>025-131500-
SOUTHERN MARYLAND

CITY           SKY/WX    TMP DP  RH WIND       PRES   REMARKS
PATUXENT RIVER MOSUNNY   25   2  37 W18G29    29.87R WCI  11
ST INIGOES     SUNNY     26   5  40 W17G26    29.87R WCI  13
LEONARDTOWN*   MOSUNNY   27   3  36 W16G25    29.88R WCI  14

$$

MDZ003>005-131500-
NORTH CENTRAL MARYLAND

CITY           SKY/WX    TMP DP  RH WIND       PRES   REMARKS
FREDERICK*     SUNNY     23  -2  33 W17G28    29.86R WCI   9
HAGERSTOWN APT MOSUNNY   22   2  42 W25G31    29.78R WCI   5
WESTMINSTER*   SUNNY     21   5  49 W21G31    29.73S WCI   6

$$

MDZ501>502-131500-
WESTERN MARYLAND

CITY           SKY/WX    TMP DP  RH WIND       PRES   REMARKS
OAKLAND*       CLOUDY    10   3  72 W15G32    29.63S WCI  -6
CUMBERLAND*    CLOUDY    23   1  39 W10G35    29.89S WCI  12

$$

VAZ025>031-131500-
SHENANDOAH VALLEY

CITY           SKY/WX    TMP DP  RH WIND       PRES   REMARKS
WINCHESTER*    MOSUNNY   21   5  49 NW13      29.83S WCI   9
FRONT ROYAL*   FAIR      23   3  42 MISG      29.83S
LURAY*         CLOUDY    25   9  50 S6        29.84S
NEW MARKET*    CLOUDY    22   4  46 W3        29.84R
STAUNTON*      SUNNY     22   5  48 S3        29.85F
WAYNESBORO*    SUNNY     21   4  48 SW3       29.82S

$$

WVZ021-048>050-054>055-131500-
EASTERN WEST VIRGINIA PANHANDLE

CITY           SKY/WX    TMP DP  RH WIND       PRES   REMARKS
MARTINSBURG    SUNNY     21   0  39 NW13G22   29.83R WCI   9
PETERSBURG*    CLOUDY    21   6  51 NW16G26   29.84F WCI   7

$$

VAZ036>039-050-131500-
CENTRAL FOOTHILLS

CITY           SKY/WX    TMP DP  RH WIND       PRES   REMARKS
CHARLOTTESVILL MOSUNNY   26   5  40 VRB5      29.87S
CULPEPER*      FAIR      27   0  32 NW8G17    29.88R WCI  18
ORANGE*        SUNNY     27   5  39 CALM      29.88R
GORDONSVILLE*  SUNNY     26   5  42 W12G17    29.87S WCI  15
WARRENTON*     SUNNY     27  -1  29 W5        29.87R

$$

VAZ055>057-131500-
NORTH AND CENTRAL PIEDMONT

CITY           SKY/WX    TMP DP  RH WIND       PRES   REMARKS
FREDERICKSBRG* SUNNY     27   6  42 W9        29.89S WCI  17
STAFFORD*      SUNNY     25   2  38 W8        29.92S WCI  16

$$

NCZ024-NYZ072-PAZ021-071-VAZ022-071-131500-
OTHER REGIONAL OBSERVATIONS

CITY           SKY/WX    TMP DP  RH WIND       PRES   REMARKS
NEW YORK CITY  PTSUNNY   21   6  52 W13G26    29.56S WCI   9
PHILADELPHIA   MOSUNNY   24   4  42 W23G30    29.70R WCI   9
PITTSBURGH     CLOUDY    18   6  59 SW9       29.82F WCI   7
ROANOKE        SUNNY     24   0  35 NW13G23   29.91R WCI  12
RICHMOND       MOSUNNY   31   6  35 W12       29.92R WCI  22
RALEIGH        MOSUNNY   29   9  43 NW9       29.99R WCI  20

$$

ANZ530>537-131500-
MARINE OBSERVATIONS

STATION/POSITION TIME  TEMP    WIND        PRES
                       AIR SEA DIR/SP/G
                 (UTC) (F)     (DEG/KT/KT) (MB)
THOMAS PT LIGHT  1400   24 45  290/ 18/ 22   N/A
BALT KEY BRIDGE  1336   24     270/ 21/ 26 1008.8R
COVE POINT       1336   24     300/ 20/ 26 1011.6R
LEWISETTA        1336   25 41  290/ 15/ 18 1012.2R
SOLOMONS ISLAND  1336   25 46  290/ 13/ 25 1011.2R
PINEY POINT      1342          330/ 25/ 28   N/A

$$





USA.gov is the U.S. government's official web portal to all federal, state and local government web resources and services.